When you browse on this site, cookies collect data to enhance your experience and personalize the content and advertising you see.
Visit our Privacy Policy to learn more. By continuing to use the site, you agree to this use of cookies and data.
  • In Portugal
  • List of Countries
  • For 7 days
  • Water Temperature
  • Satellite Maps
  • Weather Map
  • Weather Widgets
  • user-avatar
    Login

    Hourly Weather Kandi

    Today, 25 May, Saturday

    Time Temperature Precipitation Wind Pressure Humidity
    00:00 +31°C° 0.7 mm 3 mps 735 mmHg 67%
    01:00 +31°C° 0.2 mm 3 mps 735 mmHg 69%
    02:00 +31°C° 0.2 mm 2 mps 735 mmHg 71%
    03:00 +30°C° 0.2 mm 2 mps 735 mmHg 73%
    04:00 +30°C° 0.4 mm 2 mps 735 mmHg 72%
    05:00 +30°C° 0.4 mm 3 mps 735 mmHg 72%
    06:00 +30°C° 0.4 mm 3 mps 735 mmHg 72%
    07:00 +30°C° 0 mm 3 mps 736 mmHg 71%
    08:00 +30°C° 0 mm 3 mps 737 mmHg 70%
    09:00 +30°C° 0 mm 3 mps 737 mmHg 69%
    10:00 +31°C° 0 mm 3 mps 737 mmHg 64%
    11:00 +33°C° 0 mm 3 mps 737 mmHg 59%
    12:00 +35°C° 0 mm 3 mps 737 mmHg 54%
    13:00 +36°C° 0 mm 3 mps 736 mmHg 50%
    14:00 +37°C° 0 mm 3 mps 736 mmHg 46%
    15:00 +38°C° 0 mm 3 mps 735 mmHg 42%
    16:00 +37°C° 0 mm 2 mps 735 mmHg 44%
    17:00 +37°C° 0 mm 2 mps 735 mmHg 46%
    18:00 +35°C° 0 mm 1 mps 735 mmHg 48%
    19:00 +34°C° 0 mm 1 mps 735 mmHg 50%
    20:00 +34°C° 0 mm 1 mps 735 mmHg 51%
    21:00 +34°C° 0 mm 2 mps 736 mmHg 52%
    22:00 +34°C° 0 mm 2 mps 736 mmHg 53%
    23:00 +32°C° 0 mm 2 mps 736 mmHg 54%

    Tomorrow, 26 May, Sunday

    Time Temperature Precipitation Wind Pressure Humidity
    00:00 +32°C° 0 mm 2 mps 736 mmHg 55%
    01:00 +32°C° 0 mm 2 mps 736 mmHg 56%
    02:00 +32°C° 0 mm 1 mps 736 mmHg 57%
    03:00 +31°C° 0 mm 1 mps 735 mmHg 58%
    04:00 +31°C° 0 mm 1 mps 735 mmHg 59%
    05:00 +31°C° 0 mm 2 mps 735 mmHg 59%
    06:00 +31°C° 0 mm 2 mps 735 mmHg 60%
    07:00 +32°C° 0 mm 2 mps 736 mmHg 56%
    08:00 +34°C° 0 mm 3 mps 736 mmHg 52%
    09:00 +35°C° 0 mm 3 mps 737 mmHg 48%
    10:00 +37°C° 0 mm 3 mps 736 mmHg 43%
    11:00 +39°C° 0 mm 3 mps 736 mmHg 37%
    12:00 +42°C° 0 mm 3 mps 736 mmHg 32%
    13:00 +42°C° 0 mm 3 mps 735 mmHg 31%
    14:00 +41°C° 0 mm 2 mps 734 mmHg 30%
    15:00 +41°C° 0 mm 2 mps 733 mmHg 29%
    16:00 +40°C° 0 mm 2 mps 733 mmHg 31%
    17:00 +39°C° 0 mm 2 mps 733 mmHg 34%
    18:00 +38°C° 0 mm 2 mps 733 mmHg 37%
    19:00 +38°C° 0 mm 2 mps 734 mmHg 41%
    20:00 +37°C° 0 mm 3 mps 735 mmHg 46%
    21:00 +36°C° 0 mm 4 mps 735 mmHg 51%
    22:00 +35°C° 0 mm 4 mps 735 mmHg 55%
    23:00 +34°C° 0 mm 4 mps 735 mmHg 59%

    Day after tomorrow, 27 May, Monday

    Time Temperature Precipitation Wind Pressure Humidity
    00:00 +33°C° 0 mm 5 mps 735 mmHg 63%
    01:00 +32°C° 0 mm 4 mps 735 mmHg 63%
    02:00 +32°C° 0 mm 4 mps 734 mmHg 63%
    03:00 +30°C° 0 mm 4 mps 734 mmHg 63%
    04:00 +30°C° 0 mm 4 mps 734 mmHg 61%
    05:00 +30°C° 0 mm 3 mps 734 mmHg 60%
    06:00 +30°C° 0 mm 3 mps 735 mmHg 58%
    07:00 +33°C° 0 mm 3 mps 735 mmHg 54%
    08:00 +34°C° 0 mm 4 mps 736 mmHg 50%
    09:00 +36°C° 0 mm 4 mps 736 mmHg 46%
    10:00 +38°C° 0 mm 4 mps 736 mmHg 42%
    11:00 +40°C° 0 mm 4 mps 735 mmHg 38%
    12:00 +42°C° 0 mm 4 mps 735 mmHg 33%
    13:00 +43°C° 0 mm 4 mps 734 mmHg 32%
    14:00 +43°C° 0 mm 3 mps 733 mmHg 31%
    15:00 +44°C° 0 mm 3 mps 733 mmHg 29%
    16:00 +42°C° 0.3 mm 3 mps 733 mmHg 34%
    17:00 +39°C° 0.3 mm 3 mps 733 mmHg 40%
    18:00 +38°C° 0.3 mm 2 mps 733 mmHg 45%
    19:00 +36°C° 12.6 mm 3 mps 733 mmHg 57%
    20:00 +33°C° 12.6 mm 3 mps 733 mmHg 69%
    21:00 +30°C° 12.6 mm 4 mps 734 mmHg 82%
    22:00 +30°C° 5.8 mm 4 mps 734 mmHg 80%
    23:00 +30°C° 5.8 mm 3 mps 734 mmHg 79%

    28 May, Tuesday

    Time Temperature Precipitation Wind Pressure Humidity
    00:00 +30°C° 5.8 mm 3 mps 735 mmHg 78%
    01:00 +30°C° 0 mm 3 mps 735 mmHg 77%
    02:00 +30°C° 0 mm 3 mps 734 mmHg 77%
    03:00 +29°C° 0 mm 3 mps 734 mmHg 77%
    04:00 +29°C° 0 mm 3 mps 734 mmHg 77%
    05:00 +29°C° 0 mm 3 mps 735 mmHg 77%
    06:00 +29°C° 0 mm 4 mps 735 mmHg 78%
    07:00 +29°C° 0 mm 4 mps 736 mmHg 74%
    08:00 +30°C° 0 mm 4 mps 736 mmHg 70%
    09:00 +32°C° 0 mm 4 mps 736 mmHg 66%
    10:00 +34°C° 0 mm 4 mps 736 mmHg 60%
    11:00 +35°C° 0 mm 4 mps 736 mmHg 54%
    12:00 +37°C° 0 mm 4 mps 735 mmHg 48%
    13:00 +38°C° 0 mm 3 mps 735 mmHg 47%
    14:00 +38°C° 0 mm 3 mps 734 mmHg 45%
    15:00 +38°C° 0 mm 3 mps 733 mmHg 44%
    16:00 +38°C° 0 mm 2 mps 733 mmHg 47%
    17:00 +37°C° 0 mm 2 mps 734 mmHg 50%
    18:00 +35°C° 0 mm 1 mps 734 mmHg 53%
    19:00 +34°C° 0 mm 1 mps 734 mmHg 55%
    20:00 +35°C° 0 mm 2 mps 735 mmHg 56%
    21:00 +34°C° 0 mm 2 mps 735 mmHg 58%
    22:00 +34°C° 0 mm 2 mps 735 mmHg 59%
    23:00 +32°C° 0 mm 2 mps 735 mmHg 61%

    29 May, Wednesday

    Time Temperature Precipitation Wind Pressure Humidity
    00:00 +32°C° 0 mm 2 mps 735 mmHg 63%
    01:00 +31°C° 0 mm 2 mps 734 mmHg 64%
    02:00 +31°C° 0 mm 2 mps 734 mmHg 65%
    03:00 +31°C° 0 mm 2 mps 734 mmHg 65%
    04:00 +30°C° 0 mm 2 mps 734 mmHg 67%
    05:00 +30°C° 0 mm 2 mps 735 mmHg 68%
    06:00 +30°C° 0 mm 3 mps 735 mmHg 69%
    07:00 +31°C° 0 mm 3 mps 736 mmHg 65%
    08:00 +34°C° 0 mm 3 mps 736 mmHg 60%
    09:00 +35°C° 0 mm 4 mps 736 mmHg 56%
    10:00 +37°C° 0 mm 3 mps 736 mmHg 50%
    11:00 +38°C° 0 mm 3 mps 735 mmHg 45%
    12:00 +40°C° 0 mm 3 mps 735 mmHg 40%
    13:00 +41°C° 0 mm 2 mps 734 mmHg 37%
    14:00 +41°C° 0 mm 2 mps 733 mmHg 34%
    15:00 +42°C° 0 mm 1 mps 732 mmHg 30%
    16:00 +41°C° 0 mm 1 mps 733 mmHg 33%
    17:00 +40°C° 0 mm 1 mps 733 mmHg 35%
    18:00 +39°C° 0 mm 1 mps 733 mmHg 37%
    19:00 +38°C° 0 mm 2 mps 733 mmHg 40%
    20:00 +37°C° 0 mm 2 mps 734 mmHg 43%
    21:00 +36°C° 0 mm 3 mps 734 mmHg 47%
    22:00 +35°C° 0.2 mm 3 mps 734 mmHg 51%
    23:00 +34°C° 0.2 mm 3 mps 734 mmHg 55%

    30 May, Thursday

    Time Temperature Precipitation Wind Pressure Humidity
    00:00 +32°C° 0.2 mm 2 mps 735 mmHg 59%
    01:00 +31°C° 2.6 mm 3 mps 735 mmHg 65%
    02:00 +30°C° 2.6 mm 3 mps 734 mmHg 71%
    03:00 +29°C° 2.6 mm 3 mps 734 mmHg 77%
    04:00 +29°C° 2.7 mm 3 mps 735 mmHg 77%
    05:00 +28°C° 2.7 mm 3 mps 735 mmHg 78%
    06:00 +28°C° 2.7 mm 2 mps 736 mmHg 78%
    07:00 +29°C° 0 mm 3 mps 736 mmHg 75%
    08:00 +30°C° 0 mm 3 mps 736 mmHg 72%
    09:00 +32°C° 0 mm 4 mps 736 mmHg 69%
    10:00 +33°C° 0 mm 3 mps 736 mmHg 64%
    11:00 +34°C° 0 mm 2 mps 736 mmHg 59%
    12:00 +36°C° 0 mm 2 mps 735 mmHg 54%
    13:00 +35°C° 0 mm 1 mps 735 mmHg 51%
    14:00 +36°C° 0 mm 1 mps 734 mmHg 47%
    15:00 +37°C° 0 mm 1 mps 733 mmHg 44%
    16:00 +36°C° 0 mm 1 mps 733 mmHg 47%
    17:00 +35°C° 0 mm 1 mps 734 mmHg 49%
    18:00 +34°C° 0 mm 1 mps 734 mmHg 52%
    19:00 +34°C° 0.1 mm 1 mps 734 mmHg 54%
    20:00 +33°C° 0.1 mm 1 mps 735 mmHg 56%
    21:00 +32°C° 0.1 mm 1 mps 735 mmHg 58%
    22:00 +32°C° 0 mm 2 mps 735 mmHg 60%
    23:00 +31°C° 0 mm 2 mps 735 mmHg 62%
    Show more